Regional Weather Roundup
Issued by NWS Goodland, KS

Home | Current Version | Previous Version | Graphics & Text | Print | Product List | Glossary On
Versions: 1 2 3 4 5 6 7 8 9 10 11 12 13 14 15 16 17 18 19 20 21 22 23 24 25 26 27 28 29 30 31 32 33 34 35 36 37 38 39 40 41 42 43 44 45 46 47 48 49 50
000
ASUS43 KGLD 270208
RWRGLD

GOODLAND FORECAST AREA HOURLY WEATHER ROUNDUP
NATIONAL WEATHER SERVICE GOODLAND KS
800 PM MDT FRI MAY 26 2017

...OFFICIAL OBSERVATIONS...

CITY           SKY/WX    TMP DP  RH WIND       PRES   REMARKS
GOODLAND KS    CLOUDY    65  54  67 E25G35    29.77F THUNDER
HILL CITY KS   CLEAR     67  55  65 E5        29.84R
IMPERIAL NEB   CLOUDY    60  51  72 SE15G28   29.79F
MCCOOK NEB     CLOUDY    68  52  56 CALM      29.89R
AKRON CO       CLOUDY    58  50  75 SE20G28   29.81S
BURLINGTON CO  CLOUDY    64  52  64 NE13      29.84R
LIMON CO       LGT RAIN  58  46  64 SE7       29.88F
$$

...UNOFFICIAL OBSERVATIONS...

CITY           SKY/WX    TMP DP  RH WIND       PRES   REMARKS
LENORA KS        N/A     66  32  28 MISG        N/A
NORTON KS      CLEAR     63  52  67 CALM      29.85S
SHARON SPRINGS   N/A     68  54  61 SE8         N/A
TRENTON NEB      N/A     66  32  28 CALM        N/A
$$




USA.gov is the U.S. government's official web portal to all federal, state and local government web resources and services.